Location: Fours
(44.3167°N, 6.7000°E)
Time: 11:48:03
(UTC+00:00)

Timation 2 Rocket - Pass Details

Date: 07 June 2022
Orbit: 904 x 1077 km, 70.0° (Epoch: 01 July)

Event Time Altitude Azimuth Distance (km) Brightness Sun altitude
Rises 19:57:06 0° 316° (NW) 3,805 9.7 -6.8°
Reaches altitude 10° 20:00:56 10° 295° (WNW) 2,875 7.9 -7.3°
Maximum altitude 20:04:28 15° 263° (W) 2,536 6.8 -7.8°
Drops below altitude 10° 20:08:02 10° 231° (SW) 2,899 6.6 -8.3°
Sets 20:11:58 0° 210° (SSW) 3,857 7.0 -8.8°
